User: anonymous   Login
Location: Unspecified
(0.0000°N, 0.0000°E)
Time: 22:41:12
(UTC+00:00)
Language:

Aureole 3 - Orbit

View from above orbital plane
View from above orbital plane
View from above satellite
View from above satellite

Ground track
Ground track

The orbit data is extracted from the following two-line orbital elements,

1 12848U 81094A   18174.89573730 +.00001908 +00000-0 +11158-3 0  9995
2 12848 082.4823 321.5413 0599722 125.5905 240.2706 14.23776358842452
Epoch (UTC): 23 June 2018 21:29:51
Eccentricity: 0.0599722
inclination: 82.4823°
perigee height: 381 km
apogee height: 1244 km
right ascension of ascending node: 321.5413°
argument of perigee: 125.5905°
revolutions per day: 14.23776358
mean anomaly at epoch: 240.2706°
orbit number at epoch: 84245

The dashed part of the orbit path shows where the satellite is in the earth's shadow,  

DLR